Total_Precipitation_Accumulation
0.87 0.94 1.08 1.29 1.51 1.80 1.81 1.74 1.76 1.74 1.82 1.97 1.99 1.89 1.74 1.65 1.48 1.30 1.18 1.07 1.00 1.02 1.08 1.03 1.02 1.06 1.01 0.95 0.91 0.83 0.70 0.58 0.55 0.50 0.36 0.24 0.18 0.15 0.13 0.12 0.13 0.13 0.14
0.78 0.90 1.04 1.21 1.31 1.55 1.75 1.71 1.75 1.79 1.74 1.78 2.01 2.11 2.05 1.88 1.71 1.53 1.35 1.24 1.11 1.06 1.10 1.14 1.12 1.07 1.09 1.08 1.05 0.98 0.85 0.76 0.71 0.64 0.57 0.41 0.27 0.18 0.15 0.14 0.14 0.14 0.17
0.68 0.85 0.95 1.18 1.25 1.44 1.67 1.72 1.75 1.84 1.78 1.85 2.18 2.38 2.39 2.13 1.90 1.71 1.49 1.32 1.24 1.19 1.13 1.07 1.08 1.06 1.07 1.08 1.09 1.12 1.12 1.01 0.91 0.83 0.83 0.66 0.44 0.31 0.22 0.19 0.18 0.19 0.20
0.59 0.69 0.80 1.07 1.21 1.34 1.53 1.63 1.76 1.86 1.87 1.94 2.12 2.14 2.04 1.89 1.70 1.70 1.65 1.53 1.41 1.28 1.23 1.18 1.11 1.08 1.06 1.04 1.10 1.16 1.19 1.21 1.11 1.00 0.93 0.84 0.68 0.62 0.44 0.30 0.28 0.30 0.29
0.61 0.70 0.73 0.84 1.01 1.23 1.44 1.50 1.60 1.70 1.78 1.78 1.91 2.11 1.97 1.81 1.71 1.68 1.65 1.59 1.53 1.42 1.31 1.24 1.24 1.19 1.15 1.13 1.15 1.19 1.22 1.24 1.22 1.15 1.07 1.02 0.88 0.76 0.70 0.53 0.41 0.40 0.38
0.61 0.68 0.69 0.74 0.86 1.03 1.30 1.42 1.53 1.61 1.69 1.67 1.71 1.90 1.87 1.70 1.56 1.52 1.51 1.45 1.43 1.34 1.25 1.21 1.19 1.17 1.14 1.12 1.10 1.13 1.17 1.18 1.16 1.13 1.08 1.07 1.01 0.87 0.85 0.77 0.58 0.54 0.49
0.58 0.63 0.68 0.77 0.83 0.95 1.08 1.14 1.24 1.33 1.47 1.53 1.52 1.64 1.71 1.67 1.55 1.42 1.41 1.34 1.27 1.18 1.12 1.10 1.09 1.12 1.11 1.11 1.11 1.10 1.08 1.13 1.14 1.12 1.06 1.00 0.92 0.89 0.95 0.96 0.81 0.67 0.56
0.61 0.60 0.65 0.77 0.84 0.93 0.93 0.89 0.94 1.08 1.16 1.21 1.22 1.32 1.36 1.43 1.45 1.36 1.27 1.25 1.17 1.09 1.06 1.08 1.11 1.14 1.15 1.09 1.09 1.07 1.05 1.07 1.07 1.07 1.07 1.03 0.95 0.91 0.91 0.95 1.02 0.97 0.79
0.57 0.61 0.68 0.74 0.76 0.80 0.82 0.80 0.81 0.87 0.92 1.02 1.04 1.14 1.13 1.15 1.23 1.23 1.18 1.18 1.14 1.07 1.03 1.05 1.04 1.04 1.04 1.01 1.02 1.01 0.96 0.93 0.94 0.94 0.96 0.98 0.93 0.92 0.92 0.96 1.09 1.28 1.26
0.57 0.65 0.74 0.77 0.77 0.76 0.75 0.72 0.73 0.76 0.81 0.88 0.96 1.01 1.02 1.05 1.10 1.10 1.02 0.99 0.99 0.96 0.95 0.97 0.96 0.93 0.91 0.91 0.91 0.88 0.83 0.81 0.78 0.78 0.82 0.85 0.86 0.90 0.95 1.04 1.12 1.25 1.41
0.54 0.63 0.74 0.80 0.78 0.70 0.65 0.66 0.65 0.66 0.71 0.76 0.80 0.83 0.83 0.88 0.97 0.97 0.94 0.90 0.83 0.78 0.77 0.82 0.83 0.79 0.75 0.74 0.75 0.74 0.74 0.74 0.71 0.71 0.74 0.75 0.79 0.88 0.93 1.02 1.12 1.21 1.33
0.48 0.55 0.59 0.63 0.64 0.63 0.63 0.66 0.64 0.64 0.64 0.69 0.72 0.74 0.73 0.72 0.78 0.83 0.85 0.82 0.79 0.73 0.70 0.72 0.74 0.71 0.67 0.64 0.65 0.65 0.66 0.70 0.72 0.73 0.76 0.77 0.82 0.90 0.97 1.04 1.09 1.13 1.16
0.42 0.45 0.49 0.50 0.49 0.51 0.57 0.61 0.63 0.62 0.60 0.59 0.64 0.70 0.70 0.65 0.68 0.72 0.73 0.71 0.71 0.73 0.73 0.69 0.69 0.67 0.65 0.64 0.64 0.63 0.63 0.66 0.70 0.75 0.80 0.81 0.86 0.90 0.91 0.92 0.93 0.92 0.91
0.37 0.39 0.41 0.40 0.40 0.42 0.43 0.46 0.49 0.51 0.54 0.57 0.57 0.60 0.64 0.65 0.63 0.65 0.62 0.65 0.65 0.67 0.69 0.67 0.66 0.67 0.68 0.69 0.69 0.71 0.74 0.76 0.78 0.82 0.84 0.84 0.86 0.84 0.82 0.80 0.77 0.76 0.77
0.27 0.29 0.30 0.31 0.31 0.31 0.33 0.34 0.36 0.41 0.47 0.51 0.52 0.52 0.55 0.58 0.60 0.59 0.59 0.59 0.62 0.63 0.64 0.63 0.64 0.68 0.74 0.79 0.80 0.80 0.84 0.88 0.90 0.89 0.86 0.83 0.84 0.82 0.78 0.73 0.70 0.70 0.73
0.18 0.20 0.22 0.23 0.22 0.24 0.29 0.30 0.31 0.37 0.40 0.44 0.48 0.45 0.44 0.46 0.53 0.59 0.59 0.59 0.62 0.64 0.65 0.69 0.72 0.76 0.84 1.06 1.07 0.98 0.94 0.95 0.92 0.88 0.82 0.77 0.78 0.74 0.74 0.73 0.71 0.74 0.81
0.12 0.14 0.15 0.16 0.19 0.23 0.25 0.24 0.27 0.33 0.35 0.40 0.48 0.48 0.46 0.48 0.50 0.57 0.63 0.65 0.68 0.71 0.75 0.79 0.87 0.93 1.01 1.12 1.04 0.98 0.84 0.82 0.78 0.72 0.67 0.62 0.59 0.61 0.56 0.61 0.69 0.72 0.80
0.08 0.09 0.09 0.10 0.14 0.18 0.20 0.21 0.23 0.26 0.29 0.31 0.39 0.48 0.52 0.59 0.63 0.68 0.71 0.73 0.76 0.84 0.92 0.98 1.01 1.01 1.01 0.97 0.83 0.78 0.67 0.61 0.58 0.53 0.48 0.45 0.44 0.45 0.49 0.54 0.61 0.58 0.56
0.07 0.09 0.10 0.12 0.13 0.14 0.17 0.19 0.22 0.27 0.31 0.34 0.41 0.48 0.55 0.62 0.69 0.78 0.83 0.86 0.89 0.92 0.92 0.89 0.84 0.77 0.72 0.67 0.56 0.48 0.42 0.41 0.39 0.36 0.36 0.37 0.35 0.44 0.56 0.60 0.61 0.51 0.44
0.09 0.09 0.11 0.13 0.15 0.16 0.21 0.25 0.29 0.34 0.42 0.48 0.54 0.62 0.69 0.72 0.73 0.78 0.82 0.81 0.76 0.71 0.62 0.52 0.44 0.38 0.34 0.36 0.35 0.34 0.29 0.30 0.30 0.30 0.32 0.40 0.41 0.52 0.62 0.57 0.57 0.50 0.42
0.11 0.12 0.14 0.17 0.19 0.22 0.30 0.38 0.45 0.50 0.56 0.59 0.62 0.68 0.73 0.73 0.70 0.63 0.54 0.45 0.38 0.35 0.31 0.27 0.23 0.21 0.23 0.24 0.26 0.31 0.29 0.29 0.30 0.30 0.30 0.33 0.46 0.54 0.59 0.54 0.45 0.50 0.57
0.15 0.18 0.20 0.22 0.25 0.29 0.35 0.41 0.47 0.49 0.49 0.50 0.50 0.47 0.42 0.36 0.32 0.30 0.26 0.23 0.20 0.18 0.17 0.18 0.19 0.19 0.20 0.24 0.26 0.29 0.34 0.37 0.33 0.30 0.27 0.32 0.47 0.51 0.50 0.44 0.44 0.53 0.53
0.08 0.11 0.14 0.15 0.17 0.18 0.22 0.27 0.27 0.24 0.22 0.21 0.18 0.16 0.14 0.12 0.11 0.12 0.13 0.14 0.15 0.16 0.17 0.18 0.19 0.21 0.22 0.25 0.30 0.32 0.37 0.41 0.38 0.34 0.36 0.37 0.39 0.37 0.38 0.41 0.43 0.44 0.40
0.04 0.06 0.07 0.08 0.08 0.09 0.11 0.13 0.13 0.10 0.09 0.10 0.10 0.10 0.10 0.09 0.09 0.10 0.12 0.13 0.15 0.17 0.19 0.20 0.21 0.21 0.22 0.24 0.26 0.30 0.35 0.39 0.40 0.41 0.44 0.41 0.36 0.34 0.32 0.34 0.34 0.32 0.33
0.03 0.04 0.05 0.05 0.06 0.07 0.07 0.07 0.07 0.07 0.07 0.08 0.09 0.09 0.09 0.10 0.10 0.11 0.12 0.15 0.17 0.21 0.24 0.23 0.24 0.26 0.25 0.26 0.34 0.37 0.37 0.41 0.48 0.49 0.41 0.38 0.35 0.32 0.30 0.30 0.29 0.30 0.32
0.03 0.04 0.05 0.07 0.08 0.08 0.08 0.08 0.07 0.08 0.09 0.10 0.10 0.12 0.13 0.13 0.14 0.15 0.15 0.16 0.18 0.21 0.23 0.23 0.23 0.22 0.24 0.28 0.34 0.36 0.38 0.43 0.50 0.50 0.40 0.35 0.34 0.33 0.30 0.30 0.30 0.30 0.33